Home > Weather > Nouakchott > Past weeks

Flag for Mauritania Weather for the Past 2 Weeks in Nouakchott, Mauritania

Now
72 °F

Clear.


Feels Like: 77 °F
Forecast: 67 / 80 °F
Wind: 15 mph from North

Location: Nouakchott Airport

Current Time: May 5, 2016 at 9:28:56 AM

Latest Report: May 5, 2016 at 9:00 AM


Visibility: 4 mi

Pressure: 29.92 "Hg

Humidity: 53%

Dew Point: 54 °F

Location of NouakchottLocation

Historic Weather in Nouakchott — Graph

°F

Nouakchott Temperature Yesterday

Maximum temperature yesterday: 82 °F (at 11:00 AM)
Minimum temperature yesterday: 66 °F (at 3:30 AM)
Average temperature yesterday: 72 °F

High & Low Weather Summary for the Past Weeks

 TemperatureHumidityPressure
High109 °F (Apr 22, 3:00 PM)94% (Apr 29, 8:00 AM)29.92 "Hg (Apr 29, 8:00 AM)
Low64 °F (Apr 28, 2:00 AM)8% (Apr 22, 2:00 PM)29.68 "Hg (Apr 23, 5:00 PM)
Average76 °F58%29.82 "Hg
* Reported Apr 20 8:00 AM — May 5 8:30 AM, Nouakchott, Weather by CustomWeather, © 2016

Note: Actual official high and low records may vary slightly from our data, if they occured in-between our weather recording intervals... More about our weather records

Advertising

Nouakchott Weather History for the Previous 24 Hours

Scroll right to see more
 ConditionsComfort  
Time TempWeatherWind HumidityBarometerVisibility
8:30 AM
Thu, May 5
70 °FClear.15 mph53%29.92 "Hg4 mi
8:00 AM68 °FClear.13 mph56%29.92 "Hg4 mi
7:30 AM68 °FClear.10 mph56%29.92 "Hg4 mi
7:00 AM68 °FClear.8 mph56%29.92 "Hg4 mi
6:30 AM68 °FClear.8 mph60%29.89 "Hg4 mi
6:00 AM68 °FClear.9 mph60%29.89 "Hg4 mi
5:30 AM68 °FClear.12 mph60%29.89 "Hg4 mi
5:00 AM68 °FClear.8 mph64%29.89 "Hg4 mi
4:30 AM68 °FClear.8 mph64%29.89 "Hg4 mi
4:00 AM68 °FClear.8 mph64%29.86 "Hg4 mi
3:30 AM68 °FClear.8 mph69%29.89 "Hg4 mi
3:00 AM68 °FClear.7 mph73%29.89 "Hg4 mi
2:30 AM68 °FClear.9 mph78%29.89 "Hg4 mi
2:00 AM68 °FClear.9 mph78%29.89 "Hg4 mi
1:30 AM68 °FClear.8 mph78%29.89 "Hg4 mi
1:00 AM68 °FClear.8 mph78%29.92 "Hg4 mi
12:30 AM68 °FClear.12 mph78%29.92 "Hg4 mi
12:00 AM68 °FClear.13 mph78%29.92 "Hg4 mi
11:30 PM
Wed, May 4
68 °FClear.14 mph78%29.92 "Hg4 mi
11:00 PM68 °FClear.12 mph78%29.92 "Hg4 mi
10:30 PM68 °FClear.14 mph78%29.92 "Hg4 mi
10:00 PM68 °FClear.13 mph78%29.92 "Hg4 mi
9:30 PM70 °FClear.14 mph73%29.89 "Hg4 mi
9:00 PM70 °FClear.15 mph73%29.89 "Hg4 mi
8:30 PM70 °FClear.17 mph69%29.89 "Hg4 mi
8:00 PM70 °FSandstorm.15 mph69%29.89 "Hg3 mi
7:30 PM70 °FSandstorm.17 mph73%29.89 "Hg3 mi
7:00 PM72 °FSandstorm.14 mph69%29.86 "Hg3 mi
6:30 PM72 °FSandstorm.16 mph69%29.86 "Hg3 mi
6:00 PM75 °FSandstorm.16 mph61%29.86 "Hg3 mi
5:30 PM75 °FSandstorm.17 mph61%29.86 "Hg3 mi
5:00 PM75 °FSandstorm.17 mph61%29.86 "Hg3 mi
4:30 PM75 °FSandstorm.16 mph61%29.86 "Hg3 mi
4:00 PM77 °FClear.17 mph54%29.86 "Hg4 mi
3:30 PM77 °FClear.16 mph54%29.86 "Hg4 mi
3:00 PM79 °FClear.17 mph48%29.86 "Hg4 mi
2:30 PM81 °FClear.17 mph45%29.86 "Hg4 mi
2:00 PM79 °FClear.17 mph48%29.89 "Hg4 mi
1:30 PM81 °FClear.15 mph45%29.89 "Hg4 mi
1:00 PM79 °FClear.16 mph48%29.89 "Hg4 mi
12:30 PM79 °FClear.16 mph51%29.92 "Hg4 mi
12:00 PM79 °FClear.14 mph51%29.92 "Hg4 mi
11:30 AM81 °FClear.12 mph48%29.92 "Hg4 mi
11:00 AM82 °FClear.13 mph40%29.92 "Hg4 mi
10:30 AM81 °FClear.10 mph42%29.92 "Hg4 mi
10:00 AM77 °FClear.12 mph51%29.92 "Hg4 mi
9:30 AM77 °FClear.12 mph51%29.92 "Hg4 mi
9:00 AM73 °FClear.10 mph57%29.92 "Hg4 mi
Weather by CustomWeather, © 2016

See weather overviewHow to use our weather pages